Weather History for Lihue, HI

Change the Weather History Date:

Sunday, September 1, 2013

  Actual Average Record
Temperature  
Mean Temperature 82 °F 80 °F  
Max Temperature 86 °F 85 °F 88 °F (1961)
Min Temperature 77 °F 74 °F 69 °F (1955)
Degree Days  
Heating Degree Days 0 0  
Month to date heating degree days 0 0  
Since 1 July heating degree days 0 0  
Cooling Degree Days 17 15  
Month to date cooling degree days 17 15  
Year to date cooling degree days 2313 2541  
Growing Degree Days 32 (Base 50)    
Moisture  
Dew Point 69 °F    
Average Humidity 64    
Maximum Humidity 76    
Minimum Humidity 51    
Precipitation  
Precipitation T in 0.06 in 0.40 in (1996)
Month to date precipitation T 0.06  
Year to date precipitation 17.21 21.51  
Snow  
Snow 0.00 in - - ()
Month to date snowfall 0.0  
Since 1 July snowfall 0.0  
Since 1 September snowfall 0.0  
Snow Depth 0.00 in    
Sea Level Pressure  
Sea Level Pressure 30.02 in    
Wind  
Wind Speed 15 mph (ENE)    
Max Wind Speed 24 mph    
Max Gust Speed 28 mph    
Visibility 10 miles    
Events      
T = Trace of Precipitation, MM = Missing Value Source: NWS Daily Summary

Daily Weather History Graph

Daily Weather History Graph

Search for Another Location

Airport:

Trip Planner

Search our weather history database for the weather conditions in past years. The results will help you decide how hot, cold, wet, or windy it might be!

Date:

Astronomy

Sep. 01, 2013 Rise Set
Actual Time 6:20 AM HST 6:53 PM HST
Civil Twilight 5:57 AM HST 7:16 PM HST
Nautical Twilight 5:31 AM HST 7:42 PM HST
Astronomical Twilight 5:04 AM HST 8:09 PM HST
Moon 3:08 AM HST (9/1) 4:24 PM HST (9/1)
Length of Visible Light 13h 18m
Length of Day
12h 32m
Waning Crescent, 12% of the Moon is Illuminated
Sep 1
Waning Crescent
Sep 5
New
Sep 12
First Quarter
Sep 19
Full
Sep 26
Last Quarter

Hourly Weather History & Observations

Time (HST) Temp. Heat Index Dew Point Humidity Pressure Visibility Wind Dir Wind Speed Gust Speed Precip Events Conditions
12:53 AM 77.0 °F - 70.0 °F 79% 30.02 in 10.0 mi ENE 13.8 mph 23.0 mph 0.00 in   Overcast
1:53 AM 78.1 °F - 69.1 °F 74% 30.02 in 10.0 mi ENE 16.1 mph - 0.00 in   Scattered Clouds
2:53 AM 78.1 °F - 70.0 °F 76% 30.00 in 10.0 mi ENE 17.3 mph - 0.00 in   Mostly Cloudy
3:53 AM 78.1 °F - 69.1 °F 74% 30.00 in 10.0 mi ENE 17.3 mph - N/A   Scattered Clouds
4:53 AM 78.1 °F - 69.1 °F 74% 30.00 in 10.0 mi ENE 15.0 mph - N/A   Mostly Cloudy
5:53 AM 77.0 °F - 69.1 °F 76% 30.01 in 10.0 mi NE 12.7 mph - N/A   Mostly Cloudy
6:39 AM 77.0 °F - 69.8 °F 78% 30.02 in 10.0 mi NE 13.8 mph - N/A   Mostly Cloudy
6:53 AM 78.1 °F - 70.0 °F 76% 30.02 in 10.0 mi ENE 12.7 mph - N/A   Mostly Cloudy
7:22 AM 78.8 °F - 69.8 °F 74% 30.03 in 10.0 mi ENE 23.0 mph - 0.00 in   Scattered Clouds
7:53 AM 79.0 °F - 69.1 °F 72% 30.04 in 10.0 mi ENE 19.6 mph - 0.00 in   Scattered Clouds
8:53 AM 81.0 °F 83.3 °F 66.9 °F 62% 30.05 in 10.0 mi East 21.9 mph 26.5 mph N/A   Overcast
9:53 AM 82.9 °F 85.8 °F 68.0 °F 60% 30.05 in 10.0 mi ENE 15.0 mph - N/A   Mostly Cloudy
10:53 AM 84.9 °F 88.2 °F 68.0 °F 57% 30.05 in 10.0 mi East 16.1 mph - N/A   Scattered Clouds
11:53 AM 86.0 °F 88.2 °F 66.0 °F 51% 30.04 in 10.0 mi ENE 13.8 mph - N/A   Clear
12:53 PM 84.9 °F 87.6 °F 66.9 °F 55% 30.03 in 10.0 mi ENE 13.8 mph - N/A   Clear
1:53 PM 86.0 °F 88.8 °F 66.9 °F 53% 30.00 in 10.0 mi NE 11.5 mph - N/A   Clear
2:53 PM 84.9 °F 88.8 °F 69.1 °F 59% 29.99 in 10.0 mi ENE 12.7 mph - N/A   Partly Cloudy
3:53 PM 84.0 °F 86.5 °F 66.9 °F 56% 29.99 in 10.0 mi NE 11.5 mph - N/A   Partly Cloudy
4:53 PM 82.0 °F 85.9 °F 70.0 °F 67% 29.98 in 10.0 mi ENE 16.1 mph - N/A   Mostly Cloudy
5:53 PM 80.1 °F 82.3 °F 66.9 °F 64% 29.99 in 10.0 mi ENE 18.4 mph - N/A   Overcast
6:53 PM 79.0 °F - 70.0 °F 74% 30.00 in 10.0 mi ENE 16.1 mph - N/A   Overcast
7:53 PM 79.0 °F - 70.0 °F 74% 30.01 in 10.0 mi ENE 13.8 mph - N/A   Overcast
8:53 PM 79.0 °F - 71.1 °F 77% 30.03 in 10.0 mi ENE 16.1 mph - N/A   Overcast
9:53 PM 79.0 °F - 69.1 °F 72% 30.04 in 10.0 mi ENE 16.1 mph - N/A   Overcast
10:53 PM 79.0 °F - 68.0 °F 69% 30.04 in 10.0 mi East 17.3 mph - N/A   Scattered Clouds
11:53 PM 79.0 °F - 68.0 °F 69% 30.04 in 10.0 mi East 16.1 mph 24.2 mph N/A   Partly Cloudy